Regional Weather Roundup
Issued by NWS Northern Indiana

Home | Current Version | Previous Version | Graphics & Text | Print | Product List | Glossary On
Versions: 1 2 3 4 5 6 7 8 9 10 11 12 13 14 15 16 17 18 19 20 21 22 23 24 25 26 27 28 29 30 31 32 33 34 35 36 37 38 39 40 41 42 43 44 45 46 47 48 49 50
000
ASUS43 KIWX 021500
RWRIWX

KIWX WEATHER ROUNDUP
NATIONAL WEATHER SERVICE NORTHERN INDIANA
1100 AM EDT SUN AUG 02 2015

NOTE: "FAIR" INDICATES FEW OR NO CLOUDS BELOW 12,000 FEET WITH NO
SIGNIFICANT WEATHER AND/OR OBSTRUCTIONS TO VISIBILITY.

* THESE STATIONS ARE NOT UNDER NWS QUALITY CONTROL. THEY ALSO MAY NOT
  REPORT WEATHER SUCH AS PRECIPITATION OR FOG.

INZ001>027-021600-
NORTHERN INDIANA

CITY           SKY/WX    TMP DP  RH WIND       PRES   REMARKS
GARY*          MOSUNNY   82  70  65 SW14G28   29.86F
KNOX*          SUNNY     79  66  65 SW13      29.89F
SOUTH BEND     SUNNY     80  68  66 SW15      29.89F
ELKHART*       MOSUNNY   81  66  61 SW12G18   29.90F
GOSHEN         MOSUNNY   79  68  69 SW14      29.90F
MONTICELLO*    SUNNY     78  69  72 SW12      29.93S
LOGANSPORT*    SUNNY     79  61  53 SW14      29.95S
WARSAW*        MOSUNNY   79  68  69 SW8       29.92S
ANGOLA*        SUNNY     81  75  83 W8        29.90F
FORT WAYNE     MOSUNNY   80  66  62 SW12      29.94F

$$
INZ028>050-021600-
CENTRAL INDIANA

CITY           SKY/WX    TMP DP  RH WIND       PRES   REMARKS
LAFAYETTE      SUNNY     79  67  66 SW9       29.93F
KOKOMO*        SUNNY     81  64  57 W14       29.95F
MUNCIE*        SUNNY     78  63  59 W8G18     29.97S
INDIANAPOLIS   MOSUNNY   80  62  54 SW14      29.96F

$$
MIZ043>046-050>051-056>058-064>065-071>073-077>080-021600-
SOUTHWEST LOWER MICHIGAN

CITY           SKY/WX    TMP DP  RH WIND       PRES   REMARKS
BATTLE CREEK   SUNNY     83  70  64 SW20G25   29.85F
BENTON HARBOR  SUNNY     84  66  54 SW20G25   29.84F
COLDWATER*     SUNNY     78  68  72 SW15      29.89S
HILLSDALE*     SUNNY     81  70  68 SW7       29.89F
HOLLAND        MOSUNNY   82  69  64 SW20G29   29.81F
GRAND RAPIDS   MOSUNNY   82  70  66 SW21G28   29.80F
KALAMAZOO      SUNNY     82  70  66 SW13      29.85F
STURGIS*       SUNNY     77  70  78 SW14      29.89S
THREE RIVERS*  FAIR      79  69  70 SW10      29.88S

$$
OHZ001>008-015>018-024>025-021600-
NORTHWEST OHIO

CITY           SKY/WX    TMP DP  RH WIND       PRES   REMARKS
DEFIANCE       SUNNY     80  67  64 SW12      29.91F
FINDLAY        SUNNY     81  67  62 W12       29.92F
TOLEDO EXPRESS SUNNY     78  67  68 SW8       29.89F
TOLEDO METCALF SUNNY     80  65  59 SW12      29.90F
LIMA           SUNNY     79  65  62 W8        29.95F

$$
AND FOR LAKE MICHIGAN COASTAL AND OPEN LAKE BUOY OBSERVATIONS

STATION/POSITION TEMP    WIND        PRES    VSBY  WAVE
                 AIR SEA DIR/SP/G                  HT/PER
                 (F)     (DEG/KT/KT) (MB)    (MI)  (FT/S)
CALUMET HARBOR    79     220/  8/ 15   N/A
MICHIGAN CITY     76     180/ 13/ 15   N/A
BURNS HARBOR      78     210/ 17/ 22 1011.9F
SAINT JOSEPH      75     180/ 14/ 20 1011.2F
4 MI NW BRIDGMAN  74 72  240/ 14/ 16   N/A           2/ 4
MICHIGAN CITY     75 74  210/ 12/ 14   N/A           2/ 3

$$
&&



USA.gov is the U.S. government's official web portal to all federal, state and local government web resources and services.